Powrót do katalogu

STARLINK-5823

AktywnyŁącznośćVLEO
NORAD 55786·PAYLOAD·🇺🇸 United States

Wystrzelony Mar 3, 2023 z Vandenberg Space Force Base

Loading…

Następne Przeloty (najbliższe 24 godziny)

TLE

ŚwieżeSource: CelesTrak SupGP

Epoka: Sep 15, 2026, 01:34 UTC

1 55786C 23028AX  26258.06576389  .00655420  00000+0  38965-1 0  2584
2 55786  69.9996  86.7110 0003414 273.3030 300.6304 15.10845432    14

Śledź STARLINK-5823 w czasie rzeczywistym z AllMySat

Download on the App Store